Location: Boullarre
(49.1305°N, 3.0047°E)
Time: 18:41:56
(UTC+00:00)

CZ-4B DEB - Pass Details

Date: 06 October 2023
Orbit: 838 x 858 km, 99.0° (Epoch: 01 December)

Event Time Altitude Azimuth Distance (km) Brightness Sun altitude
Rises 19:33:11 0° 195° (SSW) 3,380 7.3 -22.8°
Reaches altitude 10° 19:35:51 10° 207° (SSW) 2,449 6.7 -23.2°
Maximum altitude 19:40:30 29° 266° (W) 1,507 6.1 -23.9°
Drops below altitude 10° 19:45:11 10° 325° (NW) 2,465 7.4 -24.7°
Sets 19:47:54 0° 337° (NNW) 3,406 8.0 -25.1°
